Location: Leo
(52.0556°N, 112.3605°W)
Time: 09:32:46
(UTC+00:00)

FO-29 - Pass Details

Date: 29 November 2023
Orbit: 799 x 1322 km, 98.6° (Epoch: 01 March)

Event Time Altitude Azimuth Distance (km) Brightness Sun altitude
Rises 09:26:16 0° 19° (NNE) 4,018 13.2 -50.6°
Reaches altitude 10° 09:29:09 10° 30° (NNE) 3,125 12.6 -50.3°
Enters shadow 09:31:53 22° 47° (NE) 2,422 11.9 -49.9°
